Location: Jackson Park
(37.2862°N, 79.9123°W)
Time: 23:05:28
(UTC+00:00)

Explorer 11/Cluster Stage 4 - Pass Details

Date: 17 May 2026
Orbit: 463 x 1173 km, 28.8° (Epoch: 5 June)

Event Time Altitude Azimuth Distance (km) Brightness Sun altitude
Rises 23:49:47 0° 200° (SSW) 4,015 10.2 5.3°
Reaches altitude 10° 23:54:37 10° 175° (S) 3,073 9.4 4.4°
Maximum altitude 23:57:43 13° 151° (SSE) 2,848 9.0 3.8°
Drops below altitude 10° 00:00:46 10° 127° (SE) 3,022 9.0 3.3°
Sets 00:05:24 0° 101° (ESE) 3,887 9.5 2.4°
